Time,TemperatureF,DewpointF,PressureIn,WindDirection,WindDirectionDegrees,WindSpeedMPH,WindSpeedGustMPH,Humidity,HourlyPrecipIn,Conditions,Clouds,dailyrainin,SoftwareType,DateUTC
2013-02-28 00:02:00,31.0,29.0,29.59,WSW,239,1.0,4.0,94,0.00,,,0.64,,2013-02-28 05:02:00,
2013-02-28 00:11:00,31.0,29.0,29.59,WSW,239,1.0,4.0,94,0.00,,,0.64,,2013-02-28 05:11:00,
2013-02-28 00:22:00,31.0,29.0,29.58,South,188,1.0,4.0,94,0.00,,,0.64,,2013-02-28 05:22:00,
2013-02-28 00:32:00,31.0,29.0,29.59,WSW,238,1.0,3.0,94,0.00,,,0.59,,2013-02-28 05:32:00,
2013-02-28 00:42:00,31.0,29.0,29.59,WSW,238,1.0,3.0,94,0.00,,,0.59,,2013-02-28 05:42:00,
2013-02-28 00:52:00,31.0,29.0,29.59,West,270,1.0,4.0,93,0.00,,,0.59,,2013-02-28 05:52:00,
2013-02-28 01:02:00,31.0,29.0,29.58,SSW,202,1.0,4.0,93,0.00,,,0.59,,2013-02-28 06:02:00,
2013-02-28 01:11:00,31.0,29.0,29.58,SSW,202,1.0,4.0,93,0.00,,,0.59,,2013-02-28 06:11:00,
2013-02-28 01:22:00,31.0,29.0,29.58,SSW,209,1.0,3.0,93,0.00,,,0.59,,2013-02-28 06:22:00,
2013-02-28 01:32:00,31.0,29.0,29.58,SSW,195,1.0,4.0,93,0.00,,,0.46,,2013-02-28 06:32:00,
2013-02-28 01:42:00,31.0,29.0,29.58,SSW,195,1.0,4.0,93,0.00,,,0.46,,2013-02-28 06:42:00,
2013-02-28 01:52:00,31.0,29.0,29.58,WSW,255,1.0,3.0,93,0.00,,,0.46,,2013-02-28 06:52:00,
2013-02-28 02:01:00,31.0,29.0,29.58,SSE,159,0.0,4.0,93,0.00,,,0.46,,2013-02-28 07:01:00,
2013-02-28 02:11:00,31.0,29.0,29.58,SSE,159,0.0,4.0,93,0.00,,,0.46,,2013-02-28 07:11:00,
2013-02-28 02:22:00,31.0,29.0,29.59,SSW,194,1.0,3.0,93,0.00,,,0.46,,2013-02-28 07:22:00,
2013-02-28 02:32:00,31.0,29.0,29.58,SSW,205,2.0,6.0,93,0.00,,,0.37,,2013-02-28 07:32:00,
2013-02-28 02:42:00,31.0,29.0,29.58,SSW,205,2.0,6.0,93,0.00,,,0.37,,2013-02-28 07:42:00,
2013-02-28 02:51:00,31.0,29.0,29.58,WSW,250,1.0,5.0,93,0.00,,,0.37,,2013-02-28 07:51:00,
2013-02-28 03:01:00,31.0,29.0,29.58,SW,227,1.0,5.0,93,0.00,,,0.37,,2013-02-28 08:01:00,
2013-02-28 03:11:00,31.0,29.0,29.58,SW,227,1.0,5.0,93,0.00,,,0.37,,2013-02-28 08:11:00,
2013-02-28 03:22:00,31.0,29.0,29.58,SSW,202,1.0,4.0,93,0.00,,,0.37,,2013-02-28 08:22:00,
2013-02-28 03:32:00,31.0,29.0,29.58,WSW,257,2.0,4.0,93,0.00,,,0.35,,2013-02-28 08:32:00,
2013-02-28 03:42:00,31.0,29.0,29.58,WSW,257,2.0,4.0,93,0.00,,,0.35,,2013-02-28 08:42:00,
2013-02-28 03:52:00,31.0,29.0,29.58,SW,214,1.0,4.0,93,0.00,,,0.35,,2013-02-28 08:52:00,
2013-02-28 04:03:00,31.0,29.0,29.58,SW,225,2.0,4.0,93,0.00,,,0.35,,2013-02-28 09:03:00,
2013-02-28 04:12:00,31.0,29.0,29.58,SW,225,2.0,4.0,93,0.00,,,0.35,,2013-02-28 09:12:00,
2013-02-28 04:22:00,31.0,29.0,29.58,SSW,194,1.0,4.0,93,0.00,,,0.35,,2013-02-28 09:22:00,
2013-02-28 04:32:00,31.0,29.0,29.58,SSW,203,1.0,4.0,93,0.00,,,0.32,,2013-02-28 09:32:00,
2013-02-28 04:42:00,31.0,29.0,29.58,SSW,203,1.0,4.0,93,0.00,,,0.32,,2013-02-28 09:42:00,
2013-02-28 04:52:00,31.0,29.0,29.59,WSW,240,0.0,2.0,93,0.00,,,0.32,,2013-02-28 09:52:00,
2013-02-28 05:02:00,31.0,29.0,29.58,SW,226,1.0,4.0,93,0.00,,,0.32,,2013-02-28 10:02:00,
2013-02-28 05:12:00,31.0,29.0,29.58,SW,226,1.0,4.0,93,0.00,,,0.32,,2013-02-28 10:12:00,
2013-02-28 05:22:00,31.0,29.0,29.58,West,260,1.0,3.0,93,0.00,,,0.32,,2013-02-28 10:22:00,
2013-02-28 05:32:00,32.0,30.0,29.59,West,266,1.0,4.0,93,0.00,,,0.28,,2013-02-28 10:32:00,
2013-02-28 05:42:00,32.0,30.0,29.59,West,266,1.0,4.0,93,0.00,,,0.28,,2013-02-28 10:42:00,
2013-02-28 05:52:00,32.0,30.0,29.59,WSW,256,0.0,3.0,94,0.00,,,0.28,,2013-02-28 10:52:00,
2013-02-28 06:02:00,32.0,30.0,29.59,West,269,1.0,3.0,94,0.00,,,0.28,,2013-02-28 11:02:00,
2013-02-28 06:11:00,32.0,30.0,29.59,West,269,1.0,3.0,94,0.00,,,0.28,,2013-02-28 11:11:00,
2013-02-28 06:22:00,32.0,30.0,29.60,WSW,256,0.0,4.0,94,0.00,,,0.28,,2013-02-28 11:22:00,
2013-02-28 06:32:00,32.0,30.0,29.60,WSW,249,1.0,5.0,94,0.00,,,0.26,,2013-02-28 11:32:00,
2013-02-28 06:42:00,32.0,30.0,29.60,WSW,249,1.0,5.0,94,0.00,,,0.26,,2013-02-28 11:42:00,
2013-02-28 06:52:00,32.0,30.0,29.61,WNW,294,1.0,3.0,94,0.00,,,0.26,,2013-02-28 11:52:00,
2013-02-28 07:02:00,32.0,30.0,29.61,WNW,290,2.0,4.0,94,0.00,,,0.26,,2013-02-28 12:02:00,
2013-02-28 07:12:00,32.0,30.0,29.61,WNW,290,2.0,4.0,94,0.00,,,0.26,,2013-02-28 12:12:00,
2013-02-28 07:22:00,32.0,30.0,29.62,WNW,290,2.0,4.0,94,0.00,,,0.26,,2013-02-28 12:22:00,
2013-02-28 07:32:00,32.0,30.0,29.62,WNW,291,2.0,3.0,94,0.00,,,0.24,,2013-02-28 12:32:00,
2013-02-28 07:42:00,32.0,30.0,29.62,WNW,291,2.0,3.0,94,0.00,,,0.24,,2013-02-28 12:42:00,
2013-02-28 07:52:00,32.0,30.0,29.62,WNW,298,2.0,4.0,94,0.00,,,0.24,,2013-02-28 12:52:00,
2013-02-28 08:02:00,32.0,30.0,29.63,WNW,295,3.0,4.0,94,0.00,,,0.24,,2013-02-28 13:02:00,
2013-02-28 08:12:00,32.0,30.0,29.63,WNW,295,3.0,4.0,94,0.00,,,0.24,,2013-02-28 13:12:00,
2013-02-28 08:22:00,32.0,30.0,29.64,NW,315,3.0,5.0,94,0.00,,,0.24,,2013-02-28 13:22:00,
2013-02-28 08:32:00,32.0,30.0,29.65,NW,306,4.0,7.0,94,0.00,,,0.23,,2013-02-28 13:32:00,
2013-02-28 08:42:00,32.0,30.0,29.65,NW,306,4.0,7.0,94,0.00,,,0.23,,2013-02-28 13:42:00,
2013-02-28 08:52:00,32.0,30.0,29.66,NW,311,4.0,5.0,94,0.00,,,0.23,,2013-02-28 13:52:00,
2013-02-28 09:02:00,32.0,30.0,29.66,NW,316,4.0,7.0,94,0.00,,,0.23,,2013-02-28 14:02:00,
2013-02-28 09:11:00,32.0,30.0,29.67,NW,312,5.0,6.0,93,0.01,,,0.24,,2013-02-28 14:11:00,
2013-02-28 09:22:00,32.0,30.0,29.67,NW,312,5.0,6.0,93,0.01,,,0.24,,2013-02-28 14:22:00,
2013-02-28 09:32:00,32.0,30.0,29.67,NW,316,4.0,8.0,93,0.01,,,0.21,,2013-02-28 14:32:00,
2013-02-28 09:42:00,32.0,30.0,29.67,NW,316,4.0,8.0,93,0.01,,,0.21,,2013-02-28 14:42:00,
2013-02-28 09:52:00,33.0,31.0,29.67,NW,312,5.0,10.0,92,0.02,,,0.22,,2013-02-28 14:52:00,
2013-02-28 10:02:00,33.0,31.0,29.68,WNW,300,5.0,9.0,91,0.03,,,0.23,,2013-02-28 15:02:00,
2013-02-28 10:11:00,33.0,31.0,29.68,WNW,300,5.0,9.0,91,0.03,,,0.23,,2013-02-28 15:11:00,
2013-02-28 10:22:00,33.0,31.0,29.69,WNW,302,5.0,9.0,91,0.02,,,0.23,,2013-02-28 15:22:00,
2013-02-28 10:32:00,34.0,31.0,29.70,NW,308,5.0,9.0,90,0.04,,,0.23,,2013-02-28 15:32:00,
2013-02-28 10:42:00,34.0,31.0,29.70,NW,308,5.0,9.0,90,0.04,,,0.23,,2013-02-28 15:42:00,
2013-02-28 10:52:00,34.0,31.0,29.70,NW,319,6.0,11.0,89,0.05,,,0.25,,2013-02-28 15:52:00,
2013-02-28 11:02:00,34.0,31.0,29.70,NW,320,7.0,11.0,89,0.05,,,0.26,,2013-02-28 16:02:00,
2013-02-28 11:12:00,34.0,31.0,29.70,NW,320,7.0,11.0,89,0.05,,,0.26,,2013-02-28 16:12:00,
2013-02-28 11:22:00,34.0,31.0,29.71,NNW,330,7.0,12.0,88,0.06,,,0.27,,2013-02-28 16:22:00,
2013-02-28 11:32:00,34.0,31.0,29.71,NW,311,7.0,11.0,88,0.05,,,0.25,,2013-02-28 16:32:00,
2013-02-28 11:42:00,34.0,31.0,29.71,NW,311,7.0,11.0,88,0.05,,,0.25,,2013-02-28 16:42:00,
2013-02-28 11:52:00,35.0,32.0,29.72,NW,310,7.0,11.0,88,0.05,,,0.27,,2013-02-28 16:52:00,
2013-02-28 12:02:00,35.0,32.0,29.73,NW,323,7.0,11.0,87,0.05,,,0.28,,2013-02-28 17:02:00,
2013-02-28 12:12:00,35.0,31.0,29.73,NNW,328,7.0,13.0,86,0.05,,,0.28,,2013-02-28 17:12:00,
2013-02-28 12:22:00,35.0,31.0,29.73,NNW,328,7.0,13.0,86,0.05,,,0.28,,2013-02-28 17:22:00,
2013-02-28 12:32:00,36.0,32.0,29.73,NW,309,7.0,11.0,86,0.03,,,0.26,,2013-02-28 17:32:00,
2013-02-28 12:42:00,36.0,32.0,29.73,NW,309,7.0,11.0,86,0.03,,,0.26,,2013-02-28 17:42:00,
2013-02-28 12:52:00,36.0,33.0,29.74,NW,323,7.0,15.0,87,0.02,,,0.26,,2013-02-28 17:52:00,
2013-02-28 13:02:00,35.0,32.0,29.75,NNW,342,5.0,9.0,89,0.01,,,0.26,,2013-02-28 18:02:00,
2013-02-28 13:12:00,35.0,32.0,29.75,NNW,342,5.0,9.0,89,0.01,,,0.26,,2013-02-28 18:12:00,
2013-02-28 13:22:00,36.0,33.0,29.74,NNW,333,6.0,13.0,87,0.00,,,0.26,,2013-02-28 18:22:00,
2013-02-28 13:32:00,37.0,33.0,29.75,NW,325,8.0,14.0,84,0.00,,,0.22,,2013-02-28 18:32:00,
2013-02-28 13:42:00,37.0,33.0,29.75,NW,325,8.0,14.0,84,0.00,,,0.22,,2013-02-28 18:42:00,
2013-02-28 13:52:00,37.0,33.0,29.75,NW,324,6.0,15.0,85,0.00,,,0.22,,2013-02-28 18:52:00,
2013-02-28 14:02:00,37.0,32.0,29.75,NW,312,9.0,15.0,83,0.00,,,0.22,,2013-02-28 19:02:00,
2013-02-28 14:12:00,37.0,32.0,29.75,NW,312,9.0,15.0,83,0.00,,,0.22,,2013-02-28 19:12:00,
2013-02-28 14:22:00,37.0,32.0,29.76,NNW,340,6.0,13.0,83,0.00,,,0.22,,2013-02-28 19:22:00,
2013-02-28 14:32:00,37.0,31.0,29.76,NW,314,9.0,16.0,80,0.00,,,0.20,,2013-02-28 19:32:00,
2013-02-28 14:42:00,37.0,31.0,29.76,NW,314,9.0,16.0,80,0.00,,,0.20,,2013-02-28 19:42:00,
2013-02-28 14:52:00,37.0,32.0,29.77,NW,320,6.0,13.0,81,0.00,,,0.20,,2013-02-28 19:52:00,
2013-02-28 15:01:00,36.0,31.0,29.77,NW,312,7.0,13.0,83,0.00,,,0.20,,2013-02-28 20:01:00,
2013-02-28 15:12:00,36.0,31.0,29.77,NW,312,7.0,13.0,83,0.00,,,0.20,,2013-02-28 20:12:00,
2013-02-28 15:22:00,36.0,31.0,29.78,WNW,297,5.0,13.0,83,0.00,,,0.20,,2013-02-28 20:22:00,
2013-02-28 15:32:00,36.0,31.0,29.78,NW,308,7.0,16.0,81,0.00,,,0.18,,2013-02-28 20:32:00,
2013-02-28 15:42:00,36.0,31.0,29.78,NW,308,7.0,16.0,81,0.00,,,0.18,,2013-02-28 20:42:00,
2013-02-28 15:52:00,36.0,30.0,29.79,NW,319,8.0,14.0,80,0.00,,,0.18,,2013-02-28 20:52:00,
2013-02-28 16:02:00,37.0,31.0,29.79,NW,317,9.0,17.0,79,0.00,,,0.18,,2013-02-28 21:02:00,
2013-02-28 16:11:00,37.0,31.0,29.79,NW,317,9.0,17.0,79,0.00,,,0.18,,2013-02-28 21:11:00,
2013-02-28 16:22:00,37.0,30.0,29.80,NW,314,8.0,14.0,77,0.00,,,0.18,,2013-02-28 21:22:00,
2013-02-28 16:32:00,36.0,30.0,29.81,NNW,328,6.0,12.0,80,0.00,,,0.15,,2013-02-28 21:32:00,
2013-02-28 16:42:00,36.0,30.0,29.81,NNW,328,6.0,12.0,80,0.00,,,0.15,,2013-02-28 21:42:00,
2013-02-28 16:52:00,35.0,29.0,29.82,NW,312,8.0,14.0,80,0.00,,,0.15,,2013-02-28 21:52:00,
2013-02-28 17:02:00,34.0,29.0,29.83,NNW,327,7.0,12.0,81,0.00,,,0.15,,2013-02-28 22:02:00,
2013-02-28 17:11:00,34.0,29.0,29.83,NNW,327,7.0,12.0,81,0.00,,,0.15,,2013-02-28 22:11:00,
2013-02-28 17:22:00,34.0,29.0,29.84,NW,310,7.0,11.0,83,0.00,,,0.15,,2013-02-28 22:22:00,
2013-02-28 17:32:00,34.0,30.0,29.85,NW,307,5.0,9.0,84,0.00,,,0.14,,2013-02-28 22:32:00,
2013-02-28 17:42:00,34.0,30.0,29.85,NW,307,5.0,9.0,84,0.00,,,0.14,,2013-02-28 22:42:00,
2013-02-28 17:52:00,34.0,30.0,29.85,North,353,5.0,10.0,84,0.00,,,0.14,,2013-02-28 22:52:00,
2013-02-28 18:02:00,33.0,28.0,29.86,NW,317,5.0,9.0,83,0.00,,,0.14,,2013-02-28 23:02:00,
2013-02-28 18:11:00,33.0,28.0,29.86,NW,317,5.0,9.0,83,0.00,,,0.14,,2013-02-28 23:11:00,
2013-02-28 18:22:00,33.0,28.0,29.87,NNW,342,6.0,12.0,81,0.00,,,0.14,,2013-02-28 23:22:00,
2013-02-28 18:32:00,33.0,27.0,29.88,NW,323,5.0,11.0,79,0.00,,,0.14,,2013-02-28 23:32:00,
2013-02-28 18:42:00,33.0,27.0,29.88,NW,323,5.0,11.0,79,0.00,,,0.14,,2013-02-28 23:42:00,
2013-02-28 18:52:00,33.0,27.0,29.89,NNW,339,6.0,10.0,79,0.00,,,0.14,,2013-02-28 23:52:00,
2013-02-28 19:02:00,33.0,27.0,29.89,North,352,5.0,9.0,79,0.00,,,0.14,,2013-03-01 00:02:00,
2013-02-28 19:11:00,33.0,27.0,29.89,North,352,5.0,9.0,79,0.00,,,0.14,,2013-03-01 00:11:00,
2013-02-28 19:22:00,33.0,28.0,29.90,NNW,333,2.0,6.0,80,0.00,,,0.14,,2013-03-01 00:22:00,
2013-02-28 19:32:00,33.0,28.0,29.91,NNW,333,2.0,5.0,80,0.00,,,0.14,,2013-03-01 00:32:00,
2013-02-28 19:42:00,33.0,28.0,29.91,NNW,333,2.0,5.0,80,0.00,,,0.14,,2013-03-01 00:42:00,
2013-02-28 19:51:00,33.0,28.0,29.91,North,6,5.0,8.0,81,0.00,,,0.14,,2013-03-01 00:51:00,
2013-02-28 20:01:00,33.0,28.0,29.92,NW,323,3.0,6.0,83,0.00,,,0.14,,2013-03-01 01:01:00,
2013-02-28 20:11:00,33.0,28.0,29.92,NW,323,3.0,6.0,83,0.00,,,0.14,,2013-03-01 01:11:00,
2013-02-28 20:22:00,32.0,28.0,29.92,NW,315,2.0,4.0,84,0.00,,,0.14,,2013-03-01 01:22:00,
2013-02-28 20:32:00,32.0,28.0,29.93,NNW,330,2.0,7.0,85,0.00,,,0.14,,2013-03-01 01:32:00,
2013-02-28 20:42:00,32.0,28.0,29.93,NNW,330,2.0,7.0,85,0.00,,,0.14,,2013-03-01 01:42:00,
2013-02-28 20:52:00,32.0,28.0,29.93,NNW,338,5.0,8.0,86,0.00,,,0.14,,2013-03-01 01:52:00,
2013-02-28 21:01:00,32.0,29.0,29.94,North,5,1.0,5.0,87,0.00,,,0.14,,2013-03-01 02:01:00,
2013-02-28 21:11:00,32.0,29.0,29.94,NW,318,2.0,6.0,87,0.00,,,0.14,,2013-03-01 02:11:00,
2013-02-28 21:22:00,32.0,29.0,29.94,NW,318,2.0,6.0,87,0.00,,,0.14,,2013-03-01 02:22:00,
2013-02-28 21:32:00,32.0,29.0,29.95,North,11,3.0,7.0,88,0.00,,,0.14,,2013-03-01 02:32:00,
2013-02-28 21:42:00,32.0,29.0,29.95,North,11,3.0,7.0,88,0.00,,,0.14,,2013-03-01 02:42:00,
2013-02-28 21:52:00,31.0,28.0,29.95,NW,320,4.0,7.0,90,0.00,,,0.14,,2013-03-01 02:52:00,
2013-02-28 22:02:00,31.0,29.0,29.95,North,349,5.0,9.0,91,0.00,,,0.14,,2013-03-01 03:02:00,
2013-02-28 22:12:00,31.0,29.0,29.95,North,349,5.0,9.0,91,0.00,,,0.14,,2013-03-01 03:12:00,
2013-02-28 22:22:00,31.0,29.0,29.96,NNE,23,3.0,8.0,91,0.00,,,0.14,,2013-03-01 03:22:00,
2013-02-28 22:32:00,31.0,29.0,29.96,NNW,340,3.0,6.0,92,0.00,,,0.14,,2013-03-01 03:32:00,
2013-02-28 22:42:00,31.0,29.0,29.96,NNW,340,3.0,6.0,92,0.00,,,0.14,,2013-03-01 03:42:00,
2013-02-28 22:52:00,30.0,28.0,29.96,NNW,347,4.0,8.0,92,0.00,,,0.14,,2013-03-01 03:52:00,
2013-02-28 23:01:00,30.0,28.0,29.96,NNW,345,3.0,8.0,91,0.00,,,0.14,,2013-03-01 04:01:00,
2013-02-28 23:12:00,30.0,28.0,29.96,NNW,345,3.0,8.0,91,0.00,,,0.14,,2013-03-01 04:12:00,
2013-02-28 23:22:00,30.0,28.0,29.96,North,349,3.0,6.0,91,0.00,,,0.14,,2013-03-01 04:22:00,
2013-02-28 23:32:00,30.0,28.0,29.96,NNW,348,2.0,5.0,91,0.00,,,0.14,,2013-03-01 04:32:00,
2013-02-28 23:42:00,30.0,28.0,29.96,NNW,348,2.0,5.0,91,0.00,,,0.14,,2013-03-01 04:42:00,
2013-02-28 23:52:00,30.0,28.0,29.96,North,11,2.0,6.0,91,0.00,,,0.14,,2013-03-01 04:52:00,